Вернуться в каталог

CZ-6A DEB

АктивенSSO
NORAD 54306·DEBRIS·🇨🇳 China

Запущен Nov 11, 2022 с Taiyuan Satellite Launch Center

Loading…

Ближайшие Пролёты (ближайшие 24 часа)

TLE

СвежийSource: Space-Track

Эпоха: Sep 14, 2026, 06:49 UTC

1 54306U 22151AZ  26257.28458234  .00000240  00000-0  15440-3 0  9990
2 54306  98.8401 258.7033 0040853  75.0477 285.5212 14.11725738197166

Отслеживайте CZ-6A DEB в реальном времени с AllMySat

Download on the App Store